Total_Precipitation_Accumulation
0.53 0.55 0.65 0.72 0.73 0.79 0.85 0.84 0.82 0.87 0.92 0.89 0.86 0.83 0.82 0.88 1.00 1.07 1.06 1.08 1.09 1.04 1.04 1.05 1.03 1.02 1.06 1.07 1.07 1.08 1.12 1.30 1.30 0.65 0.45 0.50 0.63 0.69 0.69 0.67 0.68 0.73 0.77
0.61 0.61 0.64 0.74 0.78 0.80 0.85 0.91 0.92 0.94 0.98 0.97 0.96 0.91 0.82 0.78 0.88 0.98 1.03 1.06 1.09 1.07 1.06 1.09 1.09 1.09 1.12 1.13 1.18 1.18 1.16 1.21 1.32 1.00 0.63 0.59 0.66 0.71 0.75 0.75 0.69 0.70 0.73
0.60 0.69 0.70 0.72 0.81 0.90 0.95 0.96 0.96 0.96 1.02 1.05 1.04 1.03 0.96 0.92 0.95 0.97 0.99 1.02 1.03 1.01 1.00 1.05 1.08 1.15 1.19 1.16 1.17 1.18 1.15 1.09 1.14 1.15 0.84 0.68 0.72 0.77 0.83 0.85 0.83 0.83 0.80
0.63 0.64 0.75 0.82 0.82 0.90 0.97 1.00 1.03 1.05 1.06 1.09 1.08 1.09 1.09 1.11 1.21 1.22 1.11 1.09 1.03 1.00 0.98 1.01 1.07 1.17 1.26 1.33 1.41 1.32 1.24 1.28 1.29 1.30 1.09 0.87 0.79 0.79 0.96 1.02 0.99 0.93 0.89
0.80 0.79 0.77 0.82 0.84 0.84 0.90 0.94 0.98 1.06 1.10 1.06 1.02 1.03 1.08 1.18 1.48 1.51 1.31 1.20 1.14 1.07 1.01 0.99 1.01 1.18 1.41 1.63 1.76 1.69 1.65 1.71 1.66 1.63 1.44 1.17 1.00 0.99 1.07 1.06 1.11 1.01 0.97
0.93 0.94 0.84 0.78 0.79 0.82 0.85 0.89 0.92 0.97 1.01 1.01 0.96 0.95 1.04 1.20 1.61 1.65 1.44 1.22 1.17 1.15 1.12 1.05 1.02 1.10 1.20 1.39 1.61 1.68 1.77 1.90 1.97 1.92 1.77 1.52 1.17 1.04 1.10 1.28 1.42 1.44 1.27
0.95 1.01 0.98 0.84 0.78 0.79 0.79 0.80 0.82 0.85 0.90 0.91 0.91 0.92 0.93 1.12 1.55 1.56 1.37 1.12 1.05 1.05 1.03 0.98 0.98 0.97 1.05 0.97 1.10 1.20 1.29 1.48 1.72 1.90 1.98 1.61 1.31 1.19 1.40 1.65 1.68 1.67 1.41
0.99 0.98 0.95 0.85 0.75 0.75 0.78 0.76 0.71 0.72 0.79 0.84 0.87 0.87 0.83 0.91 1.32 1.52 1.35 1.00 0.94 0.97 0.96 0.96 0.97 0.93 0.93 1.02 1.08 1.09 1.01 1.03 1.26 1.51 1.65 1.52 1.42 1.45 1.68 1.99 2.14 2.19 1.82
0.90 0.89 0.87 0.81 0.76 0.77 0.80 0.75 0.70 0.69 0.71 0.74 0.77 0.81 0.80 0.82 1.11 1.48 1.50 1.09 1.04 0.99 0.98 1.10 1.15 1.04 1.09 1.29 1.38 1.31 1.09 0.93 1.01 1.35 1.63 1.68 1.74 1.95 2.19 2.56 2.85 2.95 2.60
0.73 0.78 0.83 0.78 0.75 0.78 0.81 0.77 0.74 0.72 0.75 0.76 0.77 0.82 0.83 0.78 0.98 1.40 1.66 1.26 1.17 1.05 1.03 1.15 1.44 1.40 1.40 1.45 1.47 1.48 1.40 1.08 0.97 1.03 1.14 1.24 1.28 1.37 1.76 2.11 2.42 2.75 2.70
0.61 0.64 0.75 0.78 0.76 0.77 0.78 0.80 0.78 0.78 0.79 0.82 0.82 0.83 0.84 0.80 0.86 1.15 1.61 1.49 1.29 1.20 1.17 1.22 1.34 1.46 1.46 1.49 1.55 1.50 1.52 1.43 1.35 1.32 1.26 1.18 1.19 1.30 1.46 1.72 1.99 2.33 2.61
0.58 0.59 0.63 0.72 0.72 0.73 0.75 0.74 0.73 0.78 0.83 0.84 0.84 0.85 0.84 0.83 0.83 0.98 1.35 1.58 1.50 1.29 1.23 1.13 1.21 1.38 1.44 1.47 1.43 1.46 1.56 1.58 1.46 1.41 1.34 1.25 1.20 1.25 1.30 1.44 1.69 1.87 2.05
0.57 0.60 0.62 0.67 0.69 0.67 0.68 0.69 0.68 0.69 0.77 0.83 0.84 0.87 0.85 0.82 0.85 0.99 1.09 1.22 1.35 1.27 1.24 1.40 1.38 1.35 1.30 1.24 1.25 1.32 1.33 1.29 1.35 1.33 1.20 1.07 1.00 1.04 1.14 1.30 1.48 1.65 1.79
0.60 0.65 0.67 0.70 0.73 0.71 0.65 0.64 0.65 0.70 0.85 0.94 0.92 0.91 0.86 0.84 0.90 1.07 1.11 1.08 1.17 1.21 1.22 1.32 1.32 1.20 1.09 1.07 1.12 1.13 1.12 1.19 1.32 1.33 1.19 1.04 0.97 1.03 1.14 1.24 1.40 1.54 1.79
0.61 0.66 0.71 0.74 0.75 0.73 0.69 0.68 0.70 0.74 0.95 1.21 1.17 1.13 1.13 1.13 1.21 1.49 1.49 1.38 1.39 1.41 1.43 1.40 1.27 1.12 1.04 0.96 0.94 0.92 0.95 1.08 1.20 1.18 1.21 1.19 1.13 1.13 1.15 1.17 1.34 1.51 1.70
0.61 0.64 0.70 0.77 0.79 0.76 0.71 0.72 0.73 0.73 0.82 0.86 0.91 1.04 1.05 1.20 1.37 1.37 1.33 1.32 1.36 1.41 1.43 1.34 1.15 1.03 0.98 0.93 0.92 0.92 0.89 0.93 0.98 1.06 1.15 1.18 1.20 1.21 1.20 1.19 1.33 1.50 1.56
0.64 0.66 0.68 0.71 0.74 0.75 0.73 0.70 0.71 0.69 0.68 0.70 0.73 0.81 0.95 1.12 1.18 1.17 1.22 1.18 1.17 1.18 1.16 1.05 0.97 0.95 0.93 0.91 0.91 0.91 0.88 0.83 0.88 1.00 1.10 1.15 1.20 1.24 1.24 1.24 1.29 1.39 1.43
0.63 0.67 0.69 0.70 0.73 0.72 0.73 0.71 0.68 0.66 0.67 0.68 0.67 0.71 0.81 0.93 1.01 1.06 1.12 1.09 1.05 0.97 0.94 0.95 0.93 0.91 0.90 0.90 0.90 0.90 0.88 0.86 0.90 0.97 1.01 1.05 1.12 1.22 1.23 1.17 1.17 1.30 1.39
0.55 0.60 0.64 0.67 0.70 0.71 0.71 0.71 0.69 0.66 0.66 0.67 0.68 0.72 0.78 0.82 0.88 0.95 0.97 0.91 0.93 0.89 0.86 0.87 0.86 0.90 0.92 0.91 0.89 0.89 0.91 0.92 0.90 0.92 0.94 0.96 1.01 1.13 1.16 1.07 1.10 1.20 1.40
0.49 0.58 0.64 0.65 0.66 0.68 0.70 0.71 0.72 0.73 0.72 0.70 0.73 0.79 0.86 0.90 0.91 0.89 0.86 0.85 0.87 0.86 0.83 0.86 0.84 0.85 0.90 0.92 0.91 0.91 0.92 0.91 0.88 0.89 0.89 0.90 0.95 1.06 1.11 1.05 1.11 1.21 1.29
0.47 0.53 0.60 0.61 0.64 0.67 0.71 0.75 0.77 0.79 0.80 0.76 0.74 0.78 1.07 1.19 1.04 0.87 0.84 0.86 0.92 0.95 0.92 0.90 0.84 0.79 0.82 0.86 0.91 0.91 0.91 0.86 0.83 0.88 0.92 0.92 0.95 1.03 1.03 1.07 1.10 1.16 1.25
0.50 0.55 0.58 0.61 0.64 0.69 0.75 0.77 0.77 0.79 0.79 0.77 0.74 0.73 0.82 0.82 0.80 0.79 0.80 0.85 0.92 0.97 0.99 1.00 0.92 0.80 0.81 0.91 0.97 0.99 0.93 0.83 0.80 0.89 0.96 0.95 0.97 1.01 1.03 1.08 1.09 1.16 1.23
0.55 0.59 0.60 0.60 0.63 0.71 0.73 0.69 0.72 0.76 0.77 0.75 0.72 0.72 0.72 0.75 0.77 0.81 0.84 0.87 0.92 0.96 0.95 0.95 0.93 0.81 0.74 0.81 0.90 1.02 1.07 0.95 0.91 1.04 1.17 1.13 1.06 1.05 1.08 1.11 1.09 1.15 1.19
0.61 0.63 0.65 0.64 0.65 0.67 0.69 0.69 0.71 0.73 0.75 0.76 0.74 0.74 0.76 0.77 0.78 0.81 0.85 0.88 0.92 0.93 0.92 0.91 0.88 0.81 0.75 0.78 0.82 0.85 0.91 1.02 1.23 1.39 1.36 1.35 1.23 1.10 1.10 1.12 1.08 1.08 1.13
0.63 0.65 0.68 0.69 0.71 0.72 0.73 0.70 0.70 0.73 0.75 0.76 0.76 0.75 0.75 0.76 0.77 0.80 0.84 0.88 0.92 0.92 0.88 0.86 0.85 0.81 0.77 0.74 0.75 0.78 0.89 1.07 1.31 1.65 1.87 1.80 1.49 1.22 1.17 1.16 1.10 1.08 1.12
0.64 0.63 0.66 0.69 0.73 0.77 0.81 0.80 0.77 0.77 0.81 0.80 0.77 0.79 0.81 0.82 0.82 0.84 0.87 0.94 0.99 0.96 0.90 0.86 0.81 0.77 0.75 0.75 0.74 0.80 0.95 1.16 1.39 1.66 2.09 2.27 1.86 1.40 1.24 1.26 1.17 1.15 1.19